Location: Arbon
(43.0005°N, 0.7472°E)
Time: 11:36:12
(UTC+00:00)

CZ-4B R/B - Pass Details

Date: 22 April 2026
Orbit: 808 x 880 km, 98.9° (Epoch: 15 May)

Event Time Altitude Azimuth Distance (km) Brightness Sun altitude
Exits shadow 20:23:41 16° 167° (SSE) 2,114 4.8 -16.5°
Maximum altitude 20:28:16 84° 256° (WSW) 885 3.3 -17.2°
Drops below altitude 10° 20:33:58 10° 345° (NNW) 2,544 6.5 -18.0°
Sets 20:36:22 0° 346° (NNW) 3,488 7.3 -18.3°
